Time,TemperatureF,DewpointF,PressureIn,WindDirection,WindDirectionDegrees,WindSpeedMPH,WindSpeedGustMPH,Humidity,HourlyPrecipIn,Conditions,Clouds,dailyrainin,SoftwareType,DateUTC
2013-09-19 00:00:00,66.0,39.0,-100.00,North,-999,-999.0,-999.0,37,0.00,,,-99.99,,2013-09-19 06:00:00,
2013-09-19 00:43:00,66.0,39.0,-100.00,North,-999,-999.0,-999.0,37,0.00,,,-99.99,,2013-09-19 06:43:00,
2013-09-19 00:52:00,66.0,39.0,-100.00,North,-999,-999.0,-999.0,37,0.00,,,-99.99,,2013-09-19 06:52:00,
2013-09-19 01:00:00,65.0,41.0,-100.00,North,-999,-999.0,-999.0,40,0.00,,,-99.99,,2013-09-19 07:00:00,
2013-09-19 01:42:00,65.0,41.0,-100.00,North,-999,-999.0,-999.0,40,0.00,,,-99.99,,2013-09-19 07:42:00,
2013-09-19 01:52:00,65.0,41.0,-100.00,North,-999,-999.0,-999.0,40,0.00,,,-99.99,,2013-09-19 07:52:00,
2013-09-19 02:00:00,63.0,45.0,-100.00,North,-999,-999.0,-999.0,51,0.00,,,-99.99,,2013-09-19 08:00:00,
2013-09-19 02:42:00,63.0,45.0,-100.00,North,-999,-999.0,-999.0,51,0.00,,,-99.99,,2013-09-19 08:42:00,
2013-09-19 02:52:00,63.0,45.0,-100.00,North,-999,-999.0,-999.0,51,0.00,,,-99.99,,2013-09-19 08:52:00,
2013-09-19 03:00:00,62.0,44.0,-100.00,North,-999,-999.0,-999.0,50,0.00,,,-99.99,,2013-09-19 09:00:00,
2013-09-19 03:43:00,62.0,44.0,-100.00,North,-999,-999.0,-999.0,50,0.00,,,-99.99,,2013-09-19 09:43:00,
2013-09-19 03:53:00,62.0,44.0,-100.00,North,-999,-999.0,-999.0,50,0.00,,,-99.99,,2013-09-19 09:53:00,
2013-09-19 04:00:00,60.0,46.0,-100.00,North,-999,-999.0,-999.0,59,0.00,,,-99.99,,2013-09-19 10:00:00,
2013-09-19 04:43:00,60.0,46.0,-100.00,North,-999,-999.0,-999.0,59,0.00,,,-99.99,,2013-09-19 10:43:00,
2013-09-19 04:52:00,60.0,46.0,-100.00,North,-999,-999.0,-999.0,59,0.00,,,-99.99,,2013-09-19 10:52:00,
2013-09-19 05:00:00,57.0,47.0,-100.00,North,-999,-999.0,-999.0,69,0.00,,,-99.99,,2013-09-19 11:00:00,
2013-09-19 05:42:00,57.0,47.0,-100.00,North,-999,-999.0,-999.0,69,0.00,,,-99.99,,2013-09-19 11:42:00,
2013-09-19 05:53:00,57.0,47.0,-100.00,North,-999,-999.0,-999.0,69,0.00,,,-99.99,,2013-09-19 11:53:00,
2013-09-19 06:00:00,56.0,41.0,-100.00,North,-999,-999.0,-999.0,56,0.00,,,-99.99,,2013-09-19 12:00:00,
2013-09-19 06:43:00,56.0,41.0,-100.00,North,-999,-999.0,-999.0,56,0.00,,,-99.99,,2013-09-19 12:43:00,
2013-09-19 06:52:00,56.0,41.0,-100.00,North,-999,-999.0,-999.0,56,0.00,,,-99.99,,2013-09-19 12:52:00,
2013-09-19 07:00:00,54.0,38.0,-100.00,North,-999,-999.0,-999.0,54,0.00,,,-99.99,,2013-09-19 13:00:00,
2013-09-19 07:43:00,54.0,38.0,-100.00,North,-999,-999.0,-999.0,54,0.00,,,-99.99,,2013-09-19 13:43:00,
2013-09-19 07:52:00,54.0,38.0,-100.00,North,-999,-999.0,-999.0,54,0.00,,,-99.99,,2013-09-19 13:52:00,
2013-09-19 08:00:00,56.0,42.0,-100.00,North,-999,-999.0,-999.0,59,0.00,,,-99.99,,2013-09-19 14:00:00,
2013-09-19 08:42:00,56.0,42.0,-100.00,North,-999,-999.0,-999.0,59,0.00,,,-99.99,,2013-09-19 14:42:00,
2013-09-19 08:52:00,56.0,42.0,-100.00,North,-999,-999.0,-999.0,59,0.00,,,-99.99,,2013-09-19 14:52:00,
2013-09-19 09:00:00,55.0,45.0,-100.00,North,-999,-999.0,-999.0,69,0.00,,,-99.99,,2013-09-19 15:00:00,
2013-09-19 09:43:00,55.0,45.0,-100.00,North,-999,-999.0,-999.0,69,0.00,,,-99.99,,2013-09-19 15:43:00,
2013-09-19 09:54:00,55.0,45.0,-100.00,North,-999,-999.0,-999.0,69,0.00,,,-99.99,,2013-09-19 15:54:00,
2013-09-19 10:00:00,55.0,45.0,-100.00,North,-999,-999.0,-999.0,66,0.00,,,-99.99,,2013-09-19 16:00:00,
2013-09-19 10:43:00,55.0,45.0,-100.00,North,-999,-999.0,-999.0,66,0.00,,,-99.99,,2013-09-19 16:43:00,
2013-09-19 10:52:00,55.0,45.0,-100.00,North,-999,-999.0,-999.0,66,0.00,,,-99.99,,2013-09-19 16:52:00,
2013-09-19 11:00:00,58.0,41.0,-100.00,North,-999,-999.0,-999.0,51,0.00,,,-99.99,,2013-09-19 17:00:00,
2013-09-19 11:42:00,58.0,41.0,-100.00,North,-999,-999.0,-999.0,51,0.00,,,-99.99,,2013-09-19 17:42:00,
2013-09-19 11:53:00,58.0,41.0,-100.00,North,-999,-999.0,-999.0,51,0.00,,,-99.99,,2013-09-19 17:53:00,
2013-09-19 12:00:00,58.0,41.0,-100.00,North,-999,-999.0,-999.0,53,0.00,,,-99.99,,2013-09-19 18:00:00,
2013-09-19 12:42:00,58.0,41.0,-100.00,North,-999,-999.0,-999.0,53,0.00,,,-99.99,,2013-09-19 18:42:00,
2013-09-19 12:52:00,58.0,41.0,-100.00,North,-999,-999.0,-999.0,53,0.00,,,-99.99,,2013-09-19 18:52:00,
2013-09-19 13:00:00,61.0,41.0,-100.00,North,-999,-999.0,-999.0,48,0.00,,,-99.99,,2013-09-19 19:00:00,
2013-09-19 13:42:00,61.0,41.0,-100.00,North,-999,-999.0,-999.0,48,0.00,,,-99.99,,2013-09-19 19:42:00,
2013-09-19 13:52:00,61.0,41.0,-100.00,North,-999,-999.0,-999.0,48,0.00,,,-99.99,,2013-09-19 19:52:00,
2013-09-19 14:00:00,62.0,42.0,-100.00,North,-999,-999.0,-999.0,48,0.00,,,-99.99,,2013-09-19 20:00:00,
2013-09-19 14:42:00,62.0,42.0,-100.00,North,-999,-999.0,-999.0,48,0.00,,,-99.99,,2013-09-19 20:42:00,
2013-09-19 14:52:00,62.0,42.0,-100.00,North,-999,-999.0,-999.0,48,0.00,,,-99.99,,2013-09-19 20:52:00,
2013-09-19 15:00:00,60.0,41.0,-100.00,North,-999,-999.0,-999.0,49,0.00,,,-99.99,,2013-09-19 21:00:00,
2013-09-19 15:44:00,60.0,41.0,-100.00,North,-999,-999.0,-999.0,49,0.00,,,-99.99,,2013-09-19 21:44:00,
2013-09-19 15:55:00,60.0,41.0,-100.00,North,-999,-999.0,-999.0,49,0.00,,,-99.99,,2013-09-19 21:55:00,
2013-09-19 16:00:00,62.0,40.0,-100.00,North,-999,-999.0,-999.0,45,0.00,,,-99.99,,2013-09-19 22:00:00,
2013-09-19 16:42:00,62.0,40.0,-100.00,North,-999,-999.0,-999.0,45,0.00,,,-99.99,,2013-09-19 22:42:00,
2013-09-19 16:53:00,62.0,40.0,-100.00,North,-999,-999.0,-999.0,45,0.00,,,-99.99,,2013-09-19 22:53:00,
2013-09-19 17:00:00,63.0,41.0,-100.00,North,-999,-999.0,-999.0,45,0.00,,,-99.99,,2013-09-19 23:00:00,
2013-09-19 17:43:00,63.0,41.0,-100.00,North,-999,-999.0,-999.0,45,0.00,,,-99.99,,2013-09-19 23:43:00,
2013-09-19 17:53:00,63.0,41.0,-100.00,North,-999,-999.0,-999.0,45,0.00,,,-99.99,,2013-09-19 23:53:00,
2013-09-19 18:00:00,62.0,42.0,-100.00,North,-999,-999.0,-999.0,48,0.00,,,-99.99,,2013-09-20 00:00:00,
2013-09-19 18:42:00,62.0,42.0,-100.00,North,-999,-999.0,-999.0,48,0.00,,,-99.99,,2013-09-20 00:42:00,
2013-09-19 18:52:00,62.0,42.0,-100.00,North,-999,-999.0,-999.0,48,0.00,,,-99.99,,2013-09-20 00:52:00,
2013-09-19 19:00:00,60.0,43.0,-100.00,North,-999,-999.0,-999.0,53,0.00,,,-99.99,,2013-09-20 01:00:00,
2013-09-19 19:42:00,60.0,43.0,-100.00,North,-999,-999.0,-999.0,53,0.00,,,-99.99,,2013-09-20 01:42:00,
2013-09-19 19:52:00,60.0,43.0,-100.00,North,-999,-999.0,-999.0,53,0.00,,,-99.99,,2013-09-20 01:52:00,
2013-09-19 20:00:00,55.0,44.0,-100.00,North,-999,-999.0,-999.0,67,0.00,,,-99.99,,2013-09-20 02:00:00,
2013-09-19 20:42:00,55.0,44.0,-100.00,North,-999,-999.0,-999.0,67,0.00,,,-99.99,,2013-09-20 02:42:00,
2013-09-19 20:53:00,55.0,44.0,-100.00,North,-999,-999.0,-999.0,67,0.00,,,-99.99,,2013-09-20 02:53:00,
2013-09-19 21:00:00,54.0,43.0,-100.00,North,-999,-999.0,-999.0,65,0.00,,,-99.99,,2013-09-20 03:00:00,
2013-09-19 21:45:00,54.0,43.0,-100.00,North,-999,-999.0,-999.0,65,0.00,,,-99.99,,2013-09-20 03:45:00,
2013-09-19 21:56:00,54.0,43.0,-100.00,North,-999,-999.0,-999.0,65,0.00,,,-99.99,,2013-09-20 03:56:00,
2013-09-19 22:00:00,52.0,42.0,-100.00,North,-999,-999.0,-999.0,69,0.00,,,-99.99,,2013-09-20 04:00:00,
2013-09-19 22:44:00,52.0,42.0,-100.00,North,-999,-999.0,-999.0,69,0.00,,,-99.99,,2013-09-20 04:44:00,
2013-09-19 22:54:00,52.0,42.0,-100.00,North,-999,-999.0,-999.0,69,0.00,,,-99.99,,2013-09-20 04:54:00,
2013-09-19 23:00:00,52.0,43.0,-100.00,North,-999,-999.0,-999.0,70,0.00,,,-99.99,,2013-09-20 05:00:00,
2013-09-19 23:43:00,52.0,43.0,-100.00,North,-999,-999.0,-999.0,70,0.00,,,-99.99,,2013-09-20 05:43:00,
2013-09-19 23:53:00,52.0,43.0,-100.00,North,-999,-999.0,-999.0,70,0.00,,,-99.99,,2013-09-20 05:53:00,